sat.trackr.live / text

‹ back to catalog

STARLINK-4706

NORAD 53779 · 2022-111G

PAYLOAD ACTIVE UNKNOWN

§ Identity

Operator
Country
US
Launch date
2022-09-11
Launch site
AFETR
Launch vehicle
Mass (kg)
RCS (m²)

Purposes: comms

External: N2YO · Heavens-Above · Gunter

§ Orbital elements

Epoch: 2026-09-20T23:05:48.074208Z

Period
94.01 min
Inclination
53.1591°
Eccentricity
0.0001323
Mean motion
15.31704455 rev/d
Perigee alt
469.8 km
Apogee alt
471.6 km
Semi-major
6,848.9 km
B*
3.0578e-5
RAAN
103.6752°
Arg perigee
86.1379°
Mean anomaly
273.9773°
Rev number
22,336

§ Raw data

STARLINK-47061 53779U 22111G   26263.96236197  .00000584  00000+0  30578-4 0  99932 53779  53.1591 103.6752 0001323  86.1379 273.9773 15.31704455223363

JSON: /api/v1/satellites/53779 · /tle

For live sub-satellite position, see the globe view (requires WebGL).

§ Visibility from observer

Set your observer location to see the next 7 days of passes ≥ 10°. The values pass through the URL so the page stays shareable.

No JS? Fill the form by hand. The geolocation button needs JavaScript.